Location: Congrier
(47.8099°N, 1.1170°W)
Time: 07:17:42
(UTC+00:00)

ATLAS 2AS CENTAUR R/B - Pass Details

Date: 28 January 2023
Orbit: 986 x 1226 km, 63.7° (Epoch: 31 January)

Event Time Altitude Azimuth Distance (km) Brightness Sun altitude
Rises 17:17:37 0° 312° (NW) 4,044 6.1 -3.8°
Reaches altitude 10° 17:20:52 10° 324° (NW) 3,043 5.3 -4.3°
Maximum altitude 17:27:01 29° 22° (NNE) 1,906 3.7 -5.2°
Drops below altitude 10° 17:32:51 10° 81° (E) 2,886 4.3 -6.2°
Enters shadow 17:34:02 - 86° (E) 3,236 4.6 -6.3°
